Le nostre stazioni meteo in Italia

Pubblicità
Il mio iltempo24.it
Bari Palese, Italia (16270): Temperatura & dewpoint: 09.09.2019 21:00:00 - 15.09.2019 21:00:00 (CEST)Bari Palese, Italia (16270): velocità del vento: 09.09.2019 21:00:00 - 15.09.2019 21:00:00 (CEST)Bari Palese, Italia (16270): direzione del vento: 09.09.2019 21:00:00 - 15.09.2019 21:00:00 (CEST)Bari Palese, Italia (16270): reduced air pressure: 09.09.2019 21:00:00 - 15.09.2019 21:00:00 (CEST)Bari Palese, Italia (16270): visibility: 09.09.2019 21:00:00 - 15.09.2019 21:00:00 (CEST)Bari Palese, Italia (16270): precipitazioni: 09.09.2019 21:00:00 - 15.09.2019 21:00:00 (CEST)
Data & Tempo tt [°C] td [°C] ff [km/h] ff [kn] dd ppp [hPa] vv [km] rr [mm]
15.09.2019 21:00:00 - - - - - - - -
15.09.2019 20:00:00 22,4 18,5 5 3 NO 1021,9 30 -
15.09.2019 19:00:00 - - - - - - - -
15.09.2019 18:00:00 - - - - - - - -
15.09.2019 17:00:00 25,1 19,2 15 8 NNE 1022,2 30 0,0
15.09.2019 16:00:00 - - - - - - - -
15.09.2019 15:00:00 - - - - - - - -
15.09.2019 14:00:00 26,3 17,7 18 10 NE 1023,5 20 -
15.09.2019 13:00:00 - - - - - - - -
15.09.2019 12:00:00 - - - - - - - -
15.09.2019 11:00:00 25,8 16,8 15 8 NNE 1024,8 20 0,0
15.09.2019 10:00:00 - - - - - - - -
15.09.2019 09:00:00 - - - - - - - -
15.09.2019 08:00:00 21,9 15,6 11 6 O 1024,4 - -
15.09.2019 07:00:00 - - - - - - - -
15.09.2019 06:00:00 - - - - - - - -
15.09.2019 05:00:00 - - - - - - - -
15.09.2019 04:00:00 - - - - - - - -
15.09.2019 03:00:00 - - - - - - - -
15.09.2019 02:00:00 19,3 12,9 9 5 O 1023,7 - -
15.09.2019 01:00:00 - - - - - - - -
15.09.2019 00:00:00 - - - - - - - -
14.09.2019 23:00:00 22,5 15,6 15 8 ONO 1024,7 20 0,0
14.09.2019 22:00:00 - - - - - - - -
14.09.2019 21:00:00 - - - - - - - -
14.09.2019 20:00:00 24,3 17,6 18 10 N 1023,6 20 -
14.09.2019 19:00:00 - - - - - - - -
14.09.2019 18:00:00 - - - - - - - -
14.09.2019 17:00:00 25,8 15,8 21 11 N 1023,9 20 0,0
14.09.2019 16:00:00 - - - - - - - -
14.09.2019 15:00:00 - - - - - - - -
14.09.2019 14:00:00 26,1 17,5 21 11 N 1025,2 - -
14.09.2019 13:00:00 - - - - - - - -
14.09.2019 12:00:00 - - - - - - - -
14.09.2019 11:00:00 24,9 18,1 16 9 N 1026,0 11 0,0
14.09.2019 10:00:00 - - - - - - - -
14.09.2019 09:00:00 - - - - - - - -
14.09.2019 08:00:00 21,6 16,5 13 7 NO 1025,6 - -
14.09.2019 07:00:00 - - - - - - - -
14.09.2019 06:00:00 - - - - - - - -
14.09.2019 05:00:00 19,9 15,8 13 7 ONO 1024,8 - 0,0
14.09.2019 04:00:00 - - - - - - - -
14.09.2019 03:00:00 - - - - - - - -
14.09.2019 02:00:00 20,2 16,0 15 8 O 1025,4 16 -
14.09.2019 01:00:00 - - - - - - - -
14.09.2019 00:00:00 - - - - - - - -
13.09.2019 23:00:00 21,9 14,9 13 7 ONO 1025,9 11 0,0
13.09.2019 22:00:00 - - - - - - - -
13.09.2019 21:00:00 - - - - - - - -
13.09.2019 20:00:00 24,8 16,1 16 9 N 1025,4 11 -
13.09.2019 19:00:00 - - - - - - - -
13.09.2019 18:00:00 - - - - - - - -
13.09.2019 17:00:00 26,3 16,0 22 12 NNE 1025,2 - 0,0
13.09.2019 16:00:00 - - - - - - - -
13.09.2019 15:00:00 - - - - - - - -
13.09.2019 14:00:00 27,0 15,3 26 14 N 1026,2 13 -
13.09.2019 13:00:00 - - - - - - - -
13.09.2019 12:00:00 - - - - - - - -
13.09.2019 11:00:00 26,4 15,8 21 11 NNE 1027,1 15 0,0
13.09.2019 10:00:00 - - - - - - - -
13.09.2019 09:00:00 - - - - - - - -
13.09.2019 08:00:00 21,9 16,7 18 10 ONO 1026,4 16 -
13.09.2019 07:00:00 - - - - - - - -
13.09.2019 06:00:00 - - - - - - - -
13.09.2019 05:00:00 21,1 17,4 15 8 NO 1025,4 - 0,0
13.09.2019 04:00:00 - - - - - - - -
13.09.2019 03:00:00 - - - - - - - -
13.09.2019 02:00:00 21,4 15,9 15 8 NO 1025,4 18 -
13.09.2019 01:00:00 - - - - - - - -
13.09.2019 00:00:00 - - - - - - - -
12.09.2019 23:00:00 21,8 13,4 13 7 ONO 1025,5 16 0,0
12.09.2019 22:00:00 - - - - - - - -
12.09.2019 21:00:00 - - - - - - - -
12.09.2019 20:00:00 24,9 17,7 18 10 N 1024,8 15 -
12.09.2019 19:00:00 - - - - - - - -
12.09.2019 18:00:00 - - - - - - - -
12.09.2019 17:00:00 - - - - - - - -
12.09.2019 16:00:00 - - - - - - - -
12.09.2019 15:00:00 - - - - - - - -
12.09.2019 14:00:00 26,8 15,3 21 11 N 1024,4 20 -
12.09.2019 13:00:00 - - - - - - - -
12.09.2019 12:00:00 - - - - - - - -
12.09.2019 11:00:00 25,8 15,1 15 8 NNO 1024,8 20 0,0
12.09.2019 10:00:00 - - - - - - - -
12.09.2019 09:00:00 - - - - - - - -
12.09.2019 08:00:00 21,3 16,3 13 7 ONO 1023,1 30 -
12.09.2019 07:00:00 - - - - - - - -
12.09.2019 06:00:00 - - - - - - - -
12.09.2019 05:00:00 18,9 15,2 15 8 O 1022,2 - 0,0
12.09.2019 04:00:00 - - - - - - - -
12.09.2019 03:00:00 - - - - - - - -
12.09.2019 02:00:00 20,5 15,7 9 5 NNO 1022,3 30 -
12.09.2019 01:00:00 - - - - - - - -
12.09.2019 00:00:00 - - - - - - - -
11.09.2019 23:00:00 24,0 18,2 11 6 N 1021,5 20 0,0
11.09.2019 22:00:00 - - - - - - - -
11.09.2019 21:00:00 - - - - - - - -
11.09.2019 20:00:00 24,0 18,4 11 6 NE 1020,5 15 -
11.09.2019 19:00:00 - - - - - - - -
11.09.2019 18:00:00 - - - - - - - -
11.09.2019 17:00:00 25,4 17,3 13 7 NNE 1019,2 20 0,0
11.09.2019 16:00:00 - - - - - - - -
11.09.2019 15:00:00 - - - - - - - -
11.09.2019 14:00:00 25,7 16,6 16 9 N 1019,0 30 -
11.09.2019 13:00:00 - - - - - - - -
11.09.2019 12:00:00 - - - - - - - -
11.09.2019 11:00:00 25,0 15,9 15 8 N 1019,1 - 0,0
11.09.2019 10:00:00 - - - - - - - -
11.09.2019 09:00:00 - - - - - - - -
11.09.2019 08:00:00 20,8 12,4 9 5 O 1017,0 30 -
11.09.2019 07:00:00 - - - - - - - -
11.09.2019 06:00:00 - - - - - - - -
11.09.2019 05:00:00 19,5 12,3 11 6 ONO 1015,7 20 0,0
11.09.2019 04:00:00 - - - - - - - -
11.09.2019 03:00:00 - - - - - - - -
11.09.2019 02:00:00 18,1 14,6 5 3 OSO 1015,9 - -
11.09.2019 01:00:00 - - - - - - - -
11.09.2019 00:00:00 - - - - - - - -
10.09.2019 23:00:00 20,3 15,0 8 4 OSO 1015,6 20 0,0
10.09.2019 22:00:00 - - - - - - - -
10.09.2019 21:00:00 - - - - - - - -
10.09.2019 20:00:00 23,5 15,2 9 5 ENE 1014,3 20 -
10.09.2019 19:00:00 - - - - - - - -
10.09.2019 18:00:00 - - - - - - - -
10.09.2019 17:00:00 25,5 13,0 18 10 ENE 1014,3 20 0,0
10.09.2019 16:00:00 - - - - - - - -
10.09.2019 15:00:00 - - - - - - - -
10.09.2019 14:00:00 26,8 11,8 13 7 NE 1015,1 20 -
10.09.2019 13:00:00 - - - - - - - -
10.09.2019 12:00:00 - - - - - - - -
10.09.2019 11:00:00 24,7 15,3 11 6 N 1016,1 20 0,0
10.09.2019 10:00:00 - - - - - - - -
10.09.2019 09:00:00 - - - - - - - -
10.09.2019 08:00:00 20,7 13,7 9 5 NO 1015,7 20 -
10.09.2019 07:00:00 - - - - - - - -
10.09.2019 06:00:00 - - - - - - - -
10.09.2019 05:00:00 18,4 11,7 11 6 ONO 1015,5 - 0,0
10.09.2019 04:00:00 - - - - - - - -
10.09.2019 03:00:00 - - - - - - - -
10.09.2019 02:00:00 19,5 13,8 9 5 ONO 1016,0 - -
10.09.2019 01:00:00 - - - - - - - -
10.09.2019 00:00:00 - - - - - - - -
09.09.2019 23:00:00 23,8 18,3 11 6 NE 1015,8 25 0,0
09.09.2019 22:00:00 - - - - - - - -
09.09.2019 21:00:00 - - - - - - - -

tt = Temperatura
td = dewpoint
ff = velocità del vento
dd = direzione del vento
ppp = reduced air pressure
vv = visibility
rr = precipitazioni

Stazioni seguenti

WeatherPro
AMSI
MeteoEarth